Location: Mentone
(34.5413°N, 85.5351°W)
Time: 17:41:25
(UTC-06:00)

Vanguard 1 - Visible Passes

Search period start: 20 December 2014 00:00
Search period end: 30 December 2014 00:00
Orbit: 653 x 3834 km, 34.2° (Epoch: 20 December)

Date Brightness Start Highest point End Pass type
(mag) Time Alt. Az. Time Alt. Az. Time Alt. Az.
20 Dec 12.1 17:52:22 10° W 18:03:51 88° S 18:18:27 24° E visible
20 Dec 12.4 20:13:41 10° W 20:29:46 81° SSW 20:31:12 78° SSE visible
20 Dec 13.5 22:36:59 10° WNW 22:43:57 29° W 22:43:57 29° W visible
21 Dec 12.1 18:13:54 10° W 18:25:52 89° S 18:38:43 30° E visible
21 Dec 12.5 20:35:23 10° WNW 20:51:29 75° SSW 20:51:29 75° SSW visible
21 Dec 13.7 22:59:14 10° W 23:04:14 22° W 23:04:14 22° W visible
22 Dec 12.1 18:35:27 10° W 18:47:56 88° S 18:59:03 36° E visible
22 Dec 12.6 20:57:07 10° WNW 21:11:49 65° SW 21:11:49 65° SW visible
22 Dec 13.9 23:21:51 10° W 23:24:35 16° W 23:24:35 16° W visible
23 Dec 11.7 16:36:38 10° WSW 16:45:38 84° SSE 17:03:03 10° E visible
23 Dec 12.2 18:57:01 10° W 19:09:59 85° S 19:19:28 42° ESE visible
23 Dec 12.8 21:18:55 10° WNW 21:32:15 54° WSW 21:32:15 54° WSW visible
24 Dec 11.8 16:58:03 10° W 17:07:26 88° S 17:25:33 10° E visible
24 Dec 12.3 19:18:36 10° W 19:32:00 79° SSW 19:40:00 48° ESE visible
24 Dec 13.1 21:40:52 10° W 21:52:47 44° WSW 21:52:47 44° WSW visible
25 Dec 11.8 17:19:31 10° W 17:29:18 89° S 17:47:51 10° E visible
25 Dec 12.4 19:40:11 10° W 19:53:59 72° SSW 20:00:39 51° SE visible
25 Dec 13.3 22:03:03 10° W 22:13:27 35° WSW 22:13:27 35° WSW visible
26 Dec 11.9 17:40:59 10° W 17:51:12 87° S 18:08:38 14° E visible
26 Dec 12.5 20:01:50 10° W 20:15:56 64° SSW 20:21:27 52° SSE visible
26 Dec 13.5 22:25:36 10° W 22:34:16 27° WSW 22:34:16 27° WSW visible
27 Dec 11.9 18:02:28 10° W 18:13:06 83° SSW 18:29:37 17° ESE visible
27 Dec 12.7 20:23:33 10° W 20:37:49 55° SSW 20:42:27 49° S visible
27 Dec 13.8 22:48:47 10° W 22:55:17 20° WSW 22:55:17 20° WSW visible
28 Dec 12.0 18:23:58 10° W 18:34:58 77° SSW 18:50:50 19° ESE visible
28 Dec 12.9 20:45:26 10° W 20:59:42 46° SSW 21:03:42 43° S visible
28 Dec 14.0 23:13:11 10° WSW 23:16:33 14° WSW 23:16:33 14° WSW visible
29 Dec 12.2 18:45:29 10° W 18:56:50 68° SSW 19:12:22 20° SE visible
29 Dec 13.2 21:07:35 10° W 21:21:32 37° SW 21:25:16 35° SSW visible
